Year,Month,Day,Hour,Minute,Value (Times are PST for temperature in C)
2012,08,06,08,11,20.20
2012,08,06,08,12,20.10
2012,08,06,08,13,20.10
2012,08,06,08,14,20.10
2012,08,06,08,15,20.10
2012,08,06,08,16,20.10
2012,08,06,08,17,20.10
2012,08,06,08,18,20.20
2012,08,06,08,19,20.20
2012,08,06,08,20,20.30
2012,08,06,08,21,20.40
2012,08,06,08,22,20.50
2012,08,06,08,23,20.70
2012,08,06,08,24,20.80
2012,08,06,08,25,20.90
2012,08,06,08,26,20.90
2012,08,06,08,27,21.00
2012,08,06,08,28,21.00
2012,08,06,08,29,21.00
2012,08,06,08,30,21.00
2012,08,06,08,31,21.00
2012,08,06,08,32,21.00
2012,08,06,08,33,21.10
2012,08,06,08,34,21.10
2012,08,06,08,35,21.10
2012,08,06,08,36,21.20
2012,08,06,08,37,21.20
2012,08,06,08,38,21.20
2012,08,06,08,39,21.30
2012,08,06,08,40,21.30
2012,08,06,08,41,21.40
2012,08,06,08,42,21.50
2012,08,06,08,43,21.60
2012,08,06,08,44,21.60
2012,08,06,08,45,21.60
2012,08,06,08,46,21.70
2012,08,06,08,47,21.70
2012,08,06,08,48,21.80
2012,08,06,08,49,21.80
2012,08,06,08,50,21.80
2012,08,06,08,51,21.90
2012,08,06,08,52,22.00
2012,08,06,08,53,22.00
2012,08,06,08,54,22.10
2012,08,06,08,55,22.20
2012,08,06,08,56,22.30
2012,08,06,08,57,22.40
2012,08,06,08,58,22.50
2012,08,06,08,59,22.50
2012,08,06,09,00,22.50
2012,08,06,09,01,22.50
2012,08,06,09,02,22.50
2012,08,06,09,03,22.60
2012,08,06,09,04,22.60
2012,08,06,09,05,22.60
2012,08,06,09,06,22.70
2012,08,06,09,07,22.70
2012,08,06,09,08,22.80
2012,08,06,09,09,22.80
2012,08,06,09,10,22.80
2012,08,06,09,11,22.80
2012,08,06,09,12,22.90
2012,08,06,09,13,23.00
2012,08,06,09,14,23.10
2012,08,06,09,15,23.10
2012,08,06,09,16,23.10
2012,08,06,09,17,23.10
2012,08,06,09,18,23.10
2012,08,06,09,19,23.00
2012,08,06,09,20,23.00
2012,08,06,09,21,22.90
2012,08,06,09,22,22.80
2012,08,06,09,23,22.80
2012,08,06,09,24,22.70
2012,08,06,09,25,22.60
2012,08,06,09,26,22.50
2012,08,06,09,27,22.40
2012,08,06,09,28,22.30
2012,08,06,09,29,22.20
2012,08,06,09,30,22.20
2012,08,06,09,31,22.30
2012,08,06,09,32,22.30
2012,08,06,09,33,22.40
2012,08,06,09,34,22.40
2012,08,06,09,35,22.50
2012,08,06,09,36,22.60
2012,08,06,09,37,22.60
2012,08,06,09,38,22.60
2012,08,06,09,39,22.60
2012,08,06,09,40,22.60
2012,08,06,09,41,22.60
2012,08,06,09,42,22.60
2012,08,06,09,43,22.70
2012,08,06,09,44,22.80
2012,08,06,09,45,22.90
2012,08,06,09,46,22.90
2012,08,06,09,47,22.90
2012,08,06,09,48,23.00
2012,08,06,09,49,23.00
2012,08,06,09,50,23.00
2012,08,06,09,51,22.90
2012,08,06,09,52,22.80
2012,08,06,09,53,22.60
2012,08,06,09,54,22.40
2012,08,06,09,55,22.20
2012,08,06,09,56,22.00
2012,08,06,09,57,21.90
2012,08,06,09,58,21.90
2012,08,06,09,59,21.90
2012,08,06,10,00,21.90
2012,08,06,10,01,21.90
2012,08,06,10,02,22.00
2012,08,06,10,03,22.00
2012,08,06,10,04,22.00
2012,08,06,10,05,22.10
2012,08,06,10,06,22.10
2012,08,06,10,07,22.10
2012,08,06,10,08,22.10
2012,08,06,10,09,22.00
2012,08,06,10,10,21.90
2012,08,06,10,11,21.80
2012,08,06,10,12,21.80
2012,08,06,10,13,21.80
2012,08,06,10,14,21.80
2012,08,06,10,15,21.80
2012,08,06,10,16,21.80
2012,08,06,10,17,21.80
2012,08,06,10,18,21.80
2012,08,06,10,19,21.80
2012,08,06,10,20,21.90
2012,08,06,10,21,21.90
2012,08,06,10,22,22.00
2012,08,06,10,23,22.00
2012,08,06,10,24,22.00
2012,08,06,10,25,22.10
2012,08,06,10,26,22.00
2012,08,06,10,27,22.00
2012,08,06,10,28,22.10
2012,08,06,10,29,22.10
2012,08,06,10,30,22.10
2012,08,06,10,31,22.10
2012,08,06,10,32,22.20
2012,08,06,10,33,22.20
2012,08,06,10,34,22.30
2012,08,06,10,35,22.40
2012,08,06,10,36,22.40
2012,08,06,10,37,22.50
2012,08,06,10,38,22.60
2012,08,06,10,39,22.70
2012,08,06,10,40,22.80
2012,08,06,10,41,22.80
2012,08,06,10,42,22.80
2012,08,06,10,43,22.80
2012,08,06,10,44,22.90
2012,08,06,10,45,23.00
2012,08,06,10,46,23.00
2012,08,06,10,47,23.10
2012,08,06,10,48,23.20
2012,08,06,10,49,23.30
2012,08,06,10,50,23.40
2012,08,06,10,51,23.50
2012,08,06,10,52,23.60
2012,08,06,10,53,23.70
2012,08,06,10,54,23.70
2012,08,06,10,55,23.70
2012,08,06,10,56,23.70
2012,08,06,10,57,23.70
2012,08,06,10,58,23.60
2012,08,06,10,59,23.50
2012,08,06,11,00,23.50
2012,08,06,11,01,23.40
2012,08,06,11,02,23.40
2012,08,06,11,03,23.40
2012,08,06,11,04,23.40
2012,08,06,11,05,23.40
2012,08,06,11,06,23.40
2012,08,06,11,07,23.40
2012,08,06,11,08,23.40
2012,08,06,11,09,23.40
2012,08,06,11,10,23.40
2012,08,06,11,11,23.50
2012,08,06,11,12,23.60
2012,08,06,11,13,23.80
2012,08,06,11,14,23.90
2012,08,06,11,15,24.00
2012,08,06,11,16,24.10
2012,08,06,11,17,24.20
2012,08,06,11,18,24.30
2012,08,06,11,19,24.50
2012,08,06,11,20,24.50
2012,08,06,11,21,24.60
2012,08,06,11,22,24.70
2012,08,06,11,23,24.70
2012,08,06,11,24,24.70
2012,08,06,11,25,24.60
2012,08,06,11,26,24.50
2012,08,06,11,27,24.30
2012,08,06,11,28,24.20
2012,08,06,11,29,24.10
2012,08,06,11,30,24.00
2012,08,06,11,31,24.00
2012,08,06,11,32,23.90
2012,08,06,11,33,23.90
2012,08,06,11,34,23.90
2012,08,06,11,35,24.00
2012,08,06,11,36,24.10
2012,08,06,11,37,24.10
2012,08,06,11,38,24.20
2012,08,06,11,39,24.30
2012,08,06,11,40,24.30
2012,08,06,11,41,24.30
2012,08,06,11,42,24.40
2012,08,06,11,43,24.40
2012,08,06,11,44,24.50
2012,08,06,11,45,24.60
2012,08,06,11,46,24.70
2012,08,06,11,47,24.60
2012,08,06,11,48,24.60
2012,08,06,11,49,24.60
2012,08,06,11,50,24.60
2012,08,06,11,51,24.60
2012,08,06,11,52,24.70
2012,08,06,11,53,24.70
2012,08,06,11,54,24.80
2012,08,06,11,55,24.80
2012,08,06,11,56,24.80
2012,08,06,11,57,24.70
2012,08,06,11,58,24.60
2012,08,06,11,59,24.60
2012,08,06,12,00,24.60
2012,08,06,12,01,24.60
2012,08,06,12,02,24.70
2012,08,06,12,03,24.70
2012,08,06,12,04,24.70
2012,08,06,12,05,24.70
2012,08,06,12,06,24.70
2012,08,06,12,07,24.70
2012,08,06,12,08,24.80
2012,08,06,12,09,24.80
2012,08,06,12,10,24.80
2012,08,06,12,11,24.80
2012,08,06,12,12,24.80
2012,08,06,12,13,24.80
2012,08,06,12,14,24.80
2012,08,06,12,15,24.70
2012,08,06,12,16,24.60
2012,08,06,12,17,24.60
2012,08,06,12,18,24.60
2012,08,06,12,19,24.60
2012,08,06,12,20,24.50
2012,08,06,12,21,24.40
2012,08,06,12,22,24.40
2012,08,06,12,23,24.30
2012,08,06,12,24,24.40
2012,08,06,12,25,24.40
2012,08,06,12,26,24.40
2012,08,06,12,27,24.50
2012,08,06,12,28,24.50
2012,08,06,12,29,24.50
2012,08,06,12,30,24.40
2012,08,06,12,31,24.40
2012,08,06,12,32,24.40
2012,08,06,12,33,24.40
2012,08,06,12,34,24.30
2012,08,06,12,35,24.30
2012,08,06,12,36,24.30
2012,08,06,12,37,24.30
2012,08,06,12,38,24.30
2012,08,06,12,39,24.40
2012,08,06,12,40,24.40
2012,08,06,12,41,24.50
2012,08,06,12,42,24.60
2012,08,06,12,43,24.50
2012,08,06,12,44,24.40
2012,08,06,12,45,24.40
2012,08,06,12,46,24.40
2012,08,06,12,47,24.40
2012,08,06,12,48,24.40
2012,08,06,12,49,24.40
2012,08,06,12,50,24.30
2012,08,06,12,51,24.20
2012,08,06,12,52,24.10
2012,08,06,12,53,24.00
2012,08,06,12,54,24.00
2012,08,06,12,55,24.00
2012,08,06,12,56,24.10
2012,08,06,12,57,24.20
2012,08,06,12,58,24.10
2012,08,06,12,59,24.00
2012,08,06,13,00,24.00
2012,08,06,13,01,23.90
2012,08,06,13,02,23.80
2012,08,06,13,03,23.60
2012,08,06,13,04,23.50
2012,08,06,13,05,23.50
2012,08,06,13,06,23.40
2012,08,06,13,07,23.40
2012,08,06,13,08,23.50
2012,08,06,13,09,23.50
2012,08,06,13,10,23.60
2012,08,06,13,11,23.60
2012,08,06,13,12,23.70
2012,08,06,13,13,23.70
2012,08,06,13,14,23.80
2012,08,06,13,15,23.80
2012,08,06,13,16,23.90
2012,08,06,13,17,23.90
2012,08,06,13,18,23.80
2012,08,06,13,19,23.80
2012,08,06,13,20,23.80
2012,08,06,13,21,23.70
2012,08,06,13,22,23.70
2012,08,06,13,23,23.70
2012,08,06,13,24,23.70
2012,08,06,13,25,23.60
2012,08,06,13,26,23.60
2012,08,06,13,27,23.60
2012,08,06,13,28,23.60
2012,08,06,13,29,23.60
2012,08,06,13,30,23.60
2012,08,06,13,31,23.60
2012,08,06,13,32,23.50
2012,08,06,13,33,23.40
2012,08,06,13,34,23.30
2012,08,06,13,35,23.30
2012,08,06,13,36,23.20
2012,08,06,13,37,23.10
2012,08,06,13,38,23.10
2012,08,06,13,39,23.10
2012,08,06,13,40,23.10
2012,08,06,13,41,23.10
2012,08,06,13,42,23.10
2012,08,06,13,43,23.00
2012,08,06,13,44,22.90
2012,08,06,13,45,22.90
2012,08,06,13,46,22.80
2012,08,06,13,47,22.70
2012,08,06,13,48,22.60
2012,08,06,13,49,22.60
2012,08,06,13,50,22.60
2012,08,06,13,51,22.60
2012,08,06,13,52,22.60
2012,08,06,13,53,22.60
2012,08,06,13,54,22.60
2012,08,06,13,55,22.60
2012,08,06,13,56,22.60
2012,08,06,13,57,22.60
2012,08,06,13,58,22.60
2012,08,06,13,59,22.60
2012,08,06,14,00,22.50
2012,08,06,14,01,22.50
2012,08,06,14,02,22.40
2012,08,06,14,03,22.40
2012,08,06,14,04,22.30
2012,08,06,14,05,22.30
2012,08,06,14,06,22.30
2012,08,06,14,07,22.20
2012,08,06,14,08,22.20
2012,08,06,14,09,22.30
2012,08,06,14,10,22.30
2012,08,06,14,11,22.30
2012,08,06,14,12,22.30
2012,08,06,14,13,22.30
2012,08,06,14,14,22.30
2012,08,06,14,15,22.30
2012,08,06,14,16,22.20
2012,08,06,14,17,22.20
2012,08,06,14,18,22.20
2012,08,06,14,19,22.30
2012,08,06,14,20,22.30
2012,08,06,14,21,22.30
2012,08,06,14,22,22.40
2012,08,06,14,23,22.40
2012,08,06,14,24,22.40
2012,08,06,14,25,22.40
2012,08,06,14,26,22.40
2012,08,06,14,27,22.40
2012,08,06,14,28,22.50
2012,08,06,14,29,22.50
2012,08,06,14,30,22.50
2012,08,06,14,31,22.40
2012,08,06,14,32,22.40
2012,08,06,14,33,22.30
2012,08,06,14,34,22.30
2012,08,06,14,35,22.30
2012,08,06,14,36,22.20
2012,08,06,14,37,22.20
2012,08,06,14,38,22.10
2012,08,06,14,39,22.10
2012,08,06,14,40,22.10
2012,08,06,14,41,22.10
2012,08,06,14,42,22.10
2012,08,06,14,43,22.20
2012,08,06,14,44,22.20
2012,08,06,14,45,22.20
2012,08,06,14,46,22.20
2012,08,06,14,47,22.10
2012,08,06,14,48,22.10
2012,08,06,14,49,22.00
2012,08,06,14,50,22.00
2012,08,06,14,51,21.90
2012,08,06,14,52,21.90
2012,08,06,14,53,21.90
2012,08,06,14,54,21.90
2012,08,06,14,55,21.90
2012,08,06,14,56,21.90
2012,08,06,14,57,21.80
2012,08,06,14,58,21.80
2012,08,06,14,59,21.80
2012,08,06,15,00,21.90
2012,08,06,15,01,21.90
2012,08,06,15,02,21.90
2012,08,06,15,03,21.90
2012,08,06,15,04,21.90
2012,08,06,15,05,21.90
2012,08,06,15,06,21.90
2012,08,06,15,07,21.90
2012,08,06,15,08,21.90
2012,08,06,15,09,21.90
2012,08,06,15,10,22.00
2012,08,06,15,11,22.00
2012,08,06,15,12,22.10
2012,08,06,15,13,22.10
2012,08,06,15,14,22.10
2012,08,06,15,15,22.10
2012,08,06,15,16,22.10
2012,08,06,15,17,22.00
2012,08,06,15,18,22.00
2012,08,06,15,19,21.90
2012,08,06,15,20,21.80
2012,08,06,15,21,21.80
2012,08,06,15,22,21.80
2012,08,06,15,23,21.70
2012,08,06,15,24,21.70
2012,08,06,15,25,21.70
2012,08,06,15,26,21.70
2012,08,06,15,27,21.60
2012,08,06,15,28,21.60
2012,08,06,15,29,21.60
2012,08,06,15,30,21.50
2012,08,06,15,31,21.50
2012,08,06,15,32,21.50
2012,08,06,15,33,21.50
2012,08,06,15,34,21.50
2012,08,06,15,35,21.50
2012,08,06,15,36,21.60
2012,08,06,15,37,21.50
2012,08,06,15,38,21.50
2012,08,06,15,39,21.50
2012,08,06,15,40,21.50
2012,08,06,15,41,21.40
2012,08,06,15,42,21.40
2012,08,06,15,43,21.50
2012,08,06,15,44,21.50
2012,08,06,15,45,21.40
2012,08,06,15,46,21.40
2012,08,06,15,47,21.30
2012,08,06,15,48,21.30
2012,08,06,15,49,21.30
2012,08,06,15,50,21.20
2012,08,06,15,51,21.20
2012,08,06,15,52,21.20
2012,08,06,15,53,21.10
2012,08,06,15,54,21.20
2012,08,06,15,55,21.20
2012,08,06,15,56,21.10
2012,08,06,15,57,21.10
2012,08,06,15,58,21.10
2012,08,06,15,59,21.20
2012,08,06,16,00,21.20
2012,08,06,16,01,21.20
2012,08,06,16,02,21.20
2012,08,06,16,03,21.20
2012,08,06,16,04,21.20
2012,08,06,16,05,21.20
2012,08,06,16,06,21.20
2012,08,06,16,07,21.20
2012,08,06,16,08,21.20
2012,08,06,16,09,21.10
2012,08,06,16,10,21.10
2012,08,06,16,11,21.10
2012,08,06,16,12,21.10
2012,08,06,16,13,21.00
2012,08,06,16,14,21.00
2012,08,06,16,15,21.00
2012,08,06,16,16,20.90
2012,08,06,16,17,20.90
2012,08,06,16,18,20.90
2012,08,06,16,19,20.90
2012,08,06,16,20,20.80
2012,08,06,16,21,20.80
2012,08,06,16,22,20.80
2012,08,06,16,23,20.80
2012,08,06,16,24,20.80
2012,08,06,16,25,20.80
2012,08,06,16,26,20.80
2012,08,06,16,27,20.80
2012,08,06,16,28,20.80
2012,08,06,16,29,20.80
2012,08,06,16,30,20.80
2012,08,06,16,31,20.80
2012,08,06,16,32,20.80
2012,08,06,16,33,20.80
2012,08,06,16,34,20.80
2012,08,06,16,35,20.90
2012,08,06,16,36,20.90
2012,08,06,16,37,20.90
2012,08,06,16,38,20.90
2012,08,06,16,39,21.00
2012,08,06,16,40,21.00
2012,08,06,16,41,21.00
2012,08,06,16,42,21.00
2012,08,06,16,43,21.10
2012,08,06,16,44,21.10
2012,08,06,16,45,21.10
2012,08,06,16,46,21.10
2012,08,06,16,47,21.10
2012,08,06,16,48,21.10
2012,08,06,16,49,21.20
2012,08,06,16,50,21.20
2012,08,06,16,51,21.20
2012,08,06,16,52,21.20
2012,08,06,16,53,21.20
2012,08,06,16,54,21.20
2012,08,06,16,55,21.20
2012,08,06,16,56,21.20
2012,08,06,16,57,21.30
2012,08,06,16,58,21.20
2012,08,06,16,59,21.20
2012,08,06,17,00,21.20
2012,08,06,17,01,21.30
2012,08,06,17,02,21.30
2012,08,06,17,03,21.30
2012,08,06,17,04,21.30
2012,08,06,17,05,21.30
2012,08,06,17,06,21.30
2012,08,06,17,07,21.30
2012,08,06,17,08,21.30
2012,08,06,17,09,21.30
2012,08,06,17,10,21.30
2012,08,06,17,11,21.30
2012,08,06,17,12,21.30
2012,08,06,17,13,21.30
2012,08,06,17,14,21.40
2012,08,06,17,15,21.30
2012,08,06,17,16,21.40
2012,08,06,17,17,21.40
2012,08,06,17,18,21.30
2012,08,06,17,19,21.30
2012,08,06,17,20,21.20
2012,08,06,17,21,21.10
2012,08,06,17,22,21.10
2012,08,06,17,23,21.10
2012,08,06,17,24,21.10
2012,08,06,17,25,21.10
2012,08,06,17,26,21.10
2012,08,06,17,27,21.10
2012,08,06,17,28,21.20
2012,08,06,17,29,21.20
2012,08,06,17,30,21.20
2012,08,06,17,31,21.20
2012,08,06,17,32,21.10
2012,08,06,17,33,21.10
2012,08,06,17,34,21.00
2012,08,06,17,35,20.90
2012,08,06,17,36,20.80
2012,08,06,17,37,20.80
2012,08,06,17,38,20.70
2012,08,06,17,39,20.70
2012,08,06,17,40,20.70
2012,08,06,17,41,20.70
2012,08,06,17,42,20.70
2012,08,06,17,43,20.70
2012,08,06,17,44,20.70
2012,08,06,17,45,20.70
2012,08,06,17,46,20.70
2012,08,06,17,47,20.70
2012,08,06,17,48,20.70
2012,08,06,17,49,20.70
2012,08,06,17,50,20.80
2012,08,06,17,51,20.80
2012,08,06,17,52,20.80
2012,08,06,17,53,20.80
2012,08,06,17,54,20.80
2012,08,06,17,55,20.80
2012,08,06,17,56,20.80
2012,08,06,17,57,20.80
2012,08,06,17,58,20.80
2012,08,06,17,59,20.80
2012,08,06,18,00,20.80
2012,08,06,18,01,20.80
2012,08,06,18,02,20.80
2012,08,06,18,03,20.80
2012,08,06,18,04,20.80
2012,08,06,18,05,20.80
2012,08,06,18,06,20.80
2012,08,06,18,07,20.80
2012,08,06,18,08,20.80
2012,08,06,18,09,20.90
2012,08,06,18,10,20.90
2012,08,06,18,11,20.90
2012,08,06,18,12,20.90
2012,08,06,18,13,20.90
2012,08,06,18,14,20.90
2012,08,06,18,15,20.90
2012,08,06,18,16,21.00
2012,08,06,18,17,21.00
2012,08,06,18,18,21.10
2012,08,06,18,19,21.10
2012,08,06,18,20,21.10
2012,08,06,18,21,21.10
2012,08,06,18,22,21.20
2012,08,06,18,23,21.20
2012,08,06,18,24,21.20
2012,08,06,18,25,21.30
2012,08,06,18,26,21.30
2012,08,06,18,27,21.30
2012,08,06,18,28,21.40
2012,08,06,18,29,21.40
2012,08,06,18,30,21.50
2012,08,06,18,31,21.60
2012,08,06,18,32,21.70
2012,08,06,18,33,21.80
2012,08,06,18,34,21.80
2012,08,06,18,35,21.90
2012,08,06,18,36,22.00
2012,08,06,18,37,22.10
2012,08,06,18,38,22.20
2012,08,06,18,39,22.40
2012,08,06,18,40,22.50
2012,08,06,18,41,22.60
2012,08,06,18,42,22.80
2012,08,06,18,43,22.90
2012,08,06,18,44,23.00
2012,08,06,18,45,23.10
2012,08,06,18,46,23.20
2012,08,06,18,47,23.30
2012,08,06,18,48,23.40
2012,08,06,18,49,23.50
2012,08,06,18,50,23.50
2012,08,06,18,51,23.50
2012,08,06,18,52,23.50
2012,08,06,18,53,23.40
2012,08,06,18,54,23.40
2012,08,06,18,55,23.40
2012,08,06,18,56,23.40
2012,08,06,18,57,23.30
2012,08,06,18,58,23.30
2012,08,06,18,59,23.30
2012,08,06,19,00,23.30
2012,08,06,19,01,23.30
2012,08,06,19,02,23.30
2012,08,06,19,03,23.30
2012,08,06,19,04,23.30
2012,08,06,19,05,23.30
2012,08,06,19,06,23.20
2012,08,06,19,07,23.20
2012,08,06,19,08,23.10
2012,08,06,19,09,23.10
2012,08,06,19,10,23.00
2012,08,06,19,11,22.90
2012,08,06,19,12,22.80
2012,08,06,19,13,22.80
2012,08,06,19,14,22.80
2012,08,06,19,15,22.80
2012,08,06,19,16,22.80
2012,08,06,19,17,22.80
2012,08,06,19,18,22.80
2012,08,06,19,19,22.80
2012,08,06,19,20,22.80
2012,08,06,19,21,22.80
2012,08,06,19,22,22.80
2012,08,06,19,23,22.80
2012,08,06,19,24,22.80
